Date String (YYYY-MM-DD hh:mm:ss) UTC,Instrument flags,absolute air pressure of the measurement (hPa),sample flow rate (lpm),inlet stack bypass flow (lpm),air temperature of the measurement (°C),ambient temperature measured by the external sensor (°C),aerosol sample conditioner tube jacket temperature (°C),OPC LED temperature (°C),internal box temperature (°C),relative humidity of the measurement (%),span deviation,mass concentration of particles derived from Lorenz-Mie calculation of OPC scattering (μg/m³),mass concentration of particles derived from Lorenz-Mie calculation of OPC scattering (μg/m³),mass concentration of particles derived from Lorenz-Mie calculation of OPC scattering (μg/m³)
DateTimeUTC,F1_M11,P_M11,Q1_M11,Q2_M11,T1_M11,T2_M11,T3_M11,T4_M11,T5_M11,U1_M11,ZSPAN_M11,X0_M11,X2_M11,X1_M11
2023-08-07 03:00:00,SystemResetWarning,0836.6,5.00,000.00,029.8,028.5,000.0,038.3,031.4,32.9,-000.6,0012.00,0008.34,0007.92
2023-08-07 03:01:00,SystemResetWarning,0836.7,5.00,000.00,029.8,028.5,000.0,038.4,031.4,32.7,-000.3,0011.86,0008.32,0007.91
2023-08-07 03:02:00,SystemResetWarning,0836.7,5.00,000.00,029.8,028.6,000.0,038.4,031.4,32.6,-000.2,0011.45,0008.30,0007.89
2023-08-07 03:03:00,SystemResetWarning,0836.6,5.00,000.00,029.8,028.6,000.0,038.4,031.4,32.6,0000.1,0011.42,0008.28,0007.86
2023-08-07 03:04:00,SystemResetWarning,0836.6,4.99,000.00,029.8,028.0,000.0,038.3,031.4,32.4,0000.2,0011.33,0008.22,0007.81
2023-08-07 03:05:00,SystemResetWarning,0836.6,5.00,000.00,029.8,026.0,000.0,038.2,031.1,32.6,0000.2,0011.40,0008.21,0007.78
2023-08-07 03:06:00,SystemResetWarning,0836.7,5.01,000.00,029.7,025.2,000.0,038.1,030.9,33.0,0000.6,0011.24,0008.12,0007.70
2023-08-07 03:07:00,SystemResetWarning,0836.8,5.01,000.00,029.6,025.3,000.0,038.1,030.7,33.3,0000.9,0011.23,0008.09,0007.65
2023-08-07 03:08:00,SystemResetWarning,0836.8,5.01,000.00,029.5,025.7,000.0,038.1,030.6,33.5,0001.0,0011.25,0008.05,0007.60
2023-08-07 03:09:00,SystemResetWarning,0836.6,4.99,000.00,029.4,026.0,000.0,038.1,030.7,33.5,0000.9,0011.07,0007.95,0007.53
2023-08-07 03:10:00,SystemResetWarning,0836.5,5.00,000.00,029.4,026.4,000.0,038.1,030.7,33.6,0000.9,0011.14,0007.91,0007.48
2023-08-07 03:11:00,SystemResetWarning,0836.4,4.99,000.00,029.4,026.7,000.0,038.1,030.8,33.5,0001.1,0010.61,0007.85,0007.42
2023-08-07 03:12:00,SystemResetWarning,0836.3,5.00,000.00,029.3,027.0,000.0,038.1,030.8,33.6,0000.8,0010.54,0007.81,0007.38
2023-08-07 03:13:00,SystemResetWarning,0836.2,5.00,000.00,029.3,027.2,000.0,038.1,030.8,33.7,0000.6,0010.64,0007.77,0007.33
2023-08-07 03:14:00,SystemResetWarning,0836.2,5.01,000.00,029.3,027.3,000.0,038.0,030.8,33.8,-000.2,0010.63,0007.73,0007.30
2023-08-07 03:15:00,SystemResetWarning,0836.0,5.01,000.00,029.3,027.5,000.0,038.0,030.9,33.5,-000.7,0010.79,0007.75,0007.29
2023-08-07 03:16:00,SystemResetWarning,0835.9,5.00,000.00,029.3,027.6,000.0,038.0,030.9,33.6,-000.9,0010.76,0007.74,0007.29
2023-08-07 03:17:00,SystemResetWarning,0835.8,4.99,000.00,029.3,027.7,000.0,038.0,030.9,33.8,-001.5,0010.85,0007.77,0007.31
2023-08-07 03:18:00,SystemResetWarning,0835.9,5.00,000.00,029.3,027.8,000.0,038.0,030.9,33.6,-001.6,0011.00,0007.80,0007.32
2023-08-07 03:19:00,SystemResetWarning,0835.9,5.00,000.00,029.4,027.9,000.0,038.0,031.0,33.5,-001.7,0010.99,0007.82,0007.35
2023-08-07 03:20:00,SystemResetWarning,0836.0,5.00,000.00,029.4,027.9,000.0,038.0,031.0,33.4,-002.0,0011.13,0007.88,0007.39
2023-08-07 03:21:00,SystemResetWarning,0835.8,5.00,000.00,029.4,028.0,000.0,038.0,031.0,33.3,-001.8,0011.21,0007.91,0007.42
2023-08-07 03:22:00,SystemResetWarning,0835.5,5.01,000.00,029.4,028.0,000.0,038.0,031.0,33.1,-001.9,0011.12,0007.92,0007.44
2023-08-07 03:23:00,SystemResetWarning,0835.3,5.01,000.00,029.4,028.1,000.0,038.0,031.0,33.0,-001.8,0011.03,0007.93,0007.46
2023-08-07 03:24:00,SystemResetWarning,0835.2,5.00,000.00,029.4,028.1,000.0,038.1,031.0,33.1,-001.7,0010.88,0007.91,0007.48
2023-08-07 03:25:00,SystemResetWarning,0835.3,5.00,000.00,029.5,028.2,000.0,038.1,031.1,33.2,-001.3,0010.96,0007.96,0007.52
2023-08-07 03:26:00,SystemResetWarning,0835.2,5.00,000.00,029.5,028.2,000.0,038.1,031.1,33.2,-001.3,0010.82,0007.94,0007.53
2023-08-07 03:27:00,SystemResetWarning,0835.1,5.00,000.00,029.5,028.2,000.0,038.1,031.1,33.2,-001.3,0010.81,0007.93,0007.53
2023-08-07 03:28:00,SystemResetWarning,0835.0,5.00,000.00,029.5,028.3,000.0,038.1,031.1,33.2,-001.5,0011.42,0007.94,0007.53
2023-08-07 03:29:00,SystemResetWarning,0834.8,5.00,000.00,029.5,028.3,000.0,038.1,031.1,33.2,-001.5,0011.48,0007.94,0007.53
2023-08-07 03:30:00,SystemResetWarning,0835.2,4.98,000.00,029.5,028.3,000.0,038.1,031.1,33.2,-001.6,0011.51,0007.93,0007.52
2023-08-07 03:31:00,SystemResetWarning,0834.9,4.99,000.00,029.6,028.3,000.0,038.1,031.2,33.5,-001.3,0011.47,0007.92,0007.50
2023-08-07 03:32:00,SystemResetWarning,0834.8,5.00,000.00,029.6,028.4,000.0,038.1,031.2,33.7,-001.3,0011.48,0007.92,0007.50
2023-08-07 03:33:00,SystemResetWarning,0835.1,5.00,000.00,029.6,028.4,000.0,038.2,031.2,33.7,-001.1,0011.43,0007.94,0007.52
2023-08-07 03:34:00,SystemResetWarning,0835.1,5.00,000.00,029.6,028.4,000.0,038.2,031.2,33.8,-001.0,0011.49,0007.97,0007.54
2023-08-07 03:35:00,SystemResetWarning,0835.2,5.00,000.00,029.6,028.4,000.0,038.2,031.2,33.8,-000.9,0011.60,0008.00,0007.56
2023-08-07 03:36:00,SystemResetWarning,0835.2,5.00,000.00,029.7,028.5,000.0,038.2,031.3,33.7,-000.9,0011.56,0008.03,0007.58
2023-08-07 03:37:00,SystemResetWarning,0835.3,5.00,000.00,029.7,028.5,000.0,038.2,031.3,33.6,-000.6,0011.60,0008.06,0007.60
2023-08-07 03:38:00,SystemResetWarning,0835.3,5.00,000.00,029.7,028.5,000.0,038.3,031.3,33.7,-000.5,0011.64,0008.11,0007.64
2023-08-07 03:39:00,SystemResetWarning,0835.4,5.00,000.00,029.7,028.5,000.0,038.3,031.3,33.4,-000.4,0011.24,0008.16,0007.72
2023-08-07 03:40:00,SystemResetWarning,0835.4,5.01,000.00,029.7,028.5,000.0,038.3,031.3,33.1,-000.3,0011.34,0008.22,0007.79
2023-08-07 03:41:00,SystemResetWarning,0835.5,5.01,000.00,029.7,028.6,000.0,038.3,031.3,33.0,-000.2,0011.24,0008.29,0007.87
2023-08-07 03:42:00,SystemResetWarning,0835.6,4.99,000.00,029.8,028.6,000.0,038.3,031.4,32.9,-000.3,0011.24,0008.35,0007.96
2023-08-07 03:43:00,SystemResetWarning,0835.5,4.99,000.00,029.8,028.6,000.0,038.3,031.4,32.6,-000.6,0011.39,0008.48,0008.06
2023-08-07 03:44:00,SystemResetWarning,0835.4,5.00,000.00,029.8,028.6,000.0,038.4,031.4,32.5,-000.8,0011.54,0008.57,0008.14
2023-08-07 03:45:00,SystemResetWarning,0835.3,5.00,000.00,029.8,028.6,000.0,038.4,031.4,32.4,-001.0,0012.22,0008.67,0008.23
2023-08-07 03:46:00,SystemResetWarning,0835.2,5.00,000.00,029.8,028.7,000.0,038.4,031.4,32.1,-001.4,0012.30,0008.77,0008.31
2023-08-07 03:47:00,SystemResetWarning,0835.2,5.00,000.00,029.8,028.7,000.0,038.4,031.4,31.8,-001.4,0012.43,0008.85,0008.37
2023-08-07 03:48:00,SystemResetWarning,0835.2,5.00,000.00,029.9,028.4,000.0,038.4,031.4,31.4,-001.9,0012.55,0008.92,0008.43
2023-08-07 03:49:00,SystemResetWarning,0835.3,4.99,000.00,029.8,026.5,000.0,038.2,031.2,31.4,-001.9,0012.65,0008.96,0008.47
2023-08-07 03:50:00,SystemResetWarning,0835.2,5.01,000.00,029.8,025.4,000.0,038.1,031.0,31.6,-001.9,0012.70,0009.01,0008.50
2023-08-07 03:51:00,SystemResetWarning,0835.1,5.01,000.00,029.6,025.3,000.0,038.1,030.7,31.7,-001.8,0012.41,0009.03,0008.51
2023-08-07 03:52:00,SystemResetWarning,0835.1,5.00,000.00,029.5,025.6,000.0,038.1,030.6,31.9,-001.9,0012.49,0009.04,0008.52
2023-08-07 03:53:00,SystemResetWarning,0834.9,5.00,000.00,029.5,026.0,000.0,038.1,030.7,32.2,-001.6,0012.62,0009.06,0008.51
2023-08-07 03:54:00,SystemResetWarning,0835.2,5.00,000.00,029.4,026.4,000.0,038.1,030.8,32.4,-001.6,0012.47,0008.99,0008.46
2023-08-07 03:55:00,SystemResetWarning,0835.1,4.99,000.00,029.4,026.8,000.0,038.1,030.9,32.5,-001.7,0012.43,0008.93,0008.40
2023-08-07 03:56:00,SystemResetWarning,0834.9,5.00,000.00,029.4,027.1,000.0,038.1,030.9,32.4,-001.6,0011.80,0008.88,0008.34
2023-08-07 03:57:00,SystemResetWarning,0834.9,5.01,000.00,029.4,027.3,000.0,038.1,030.9,32.3,-001.3,0011.74,0008.82,0008.28
2023-08-07 03:58:00,SystemResetWarning,0834.9,5.01,000.00,029.4,027.5,000.0,038.1,031.0,32.2,-001.3,0011.67,0008.74,0008.23
2023-08-07 03:59:00,SystemResetWarning,0835.0,5.00,000.00,029.4,027.7,000.0,038.1,031.0,31.8,-001.3,0011.61,0008.71,0008.20
